User: anonymous   Login
Location: Christchurch
(43.5330°S, 172.6330°E)
Time: 08:43:08
(UTC+13:00)
Language:

Envisat - Orbit

View from above orbital plane
View from above orbital plane
View from above satellite
View from above satellite

Ground track
Ground track

The orbit data is extracted from the following two-line orbital elements,

1 27386U 02009A   19293.53876639  .00000011  00000-0  17018-4 0  9991
2 27386  98.1450 308.2022 0001196  93.9695  24.2701 14.37960278923995
Epoch (UTC): 20 October 2019 12:55:49
Eccentricity: 0.0001196
inclination: 98.1450°
perigee height: 764 km
apogee height: 766 km
right ascension of ascending node: 308.2022°
argument of perigee: 93.9695°
revolutions per day: 14.37960278
mean anomaly at epoch: 24.2701°
orbit number at epoch: 92399

The dashed part of the orbit path shows where the satellite is in the earth's shadow,  

DLR